contact:dominique.lefevre@mio.osupytheas.fr, maurice.libes@osupytheas.fr, didier.mallarino@osupytheas.fr
Project:EMSO http://www.emso-fr.org/EMSO-France
Depth: 2436.0 m
Title:EMSO Ligure Ouest : Data MII capteur AQUADOPP
Date,Latitude,Longitude,X_East,Y_North,Z_Up,Amplitude_X,Amplitude_Y,Amplitude_Z,Batterie,SoundSpeed,Heading,Pitch,Roll,Pressure,TIS,Speed,Direction
, degrees North, degrees East, m.s-1, m.s-1,m.s-1, 1, 1, 1, Volt, m.s-1, degree, degree, degree, dbar, degree_C, m.s-1, degree
2021-10-18T00:04:03,42.805,6.029,0.052,-0.035,-0.018,100.0,100.0,99.0,13.4,1505.2,328.1,-0.7,1.8,2470.656,13.28,0.062,123.9
2021-10-18T00:07:03,42.805,6.029,0.03,-0.001,0.007,100.0,100.0,99.0,13.4,1505.2,330.6,-0.8,1.8,2470.674,13.28,0.03,91.9
2021-10-18T00:10:03,42.805,6.029,0.028,-0.018,0.006,99.0,101.0,100.0,13.3,1505.2,329.1,-0.8,1.8,2470.684,13.28,0.033,122.7
2021-10-18T00:13:03,42.805,6.029,0.018,-0.011,0.0,100.0,101.0,99.0,13.4,1505.2,329.9,-0.8,1.8,2470.649,13.28,0.021,121.4
2021-10-18T00:16:03,42.805,6.029,0.041,-0.027,-0.005,101.0,100.0,98.0,13.4,1505.2,328.4,-0.7,1.8,2470.679,13.28,0.049,123.4
2021-10-18T00:19:03,42.805,6.029,0.03,-0.009,-0.003,100.0,99.0,99.0,13.4,1505.2,326.8,-0.7,1.8,2470.652,13.28,0.031,106.7
2021-10-18T00:22:03,42.805,6.029,0.023,-0.016,-0.046,100.0,101.0,100.0,13.4,1505.2,330.0,-0.7,1.8,2470.67,13.28,0.028,124.8
2021-10-18T00:25:03,42.805,6.029,0.024,-0.016,-0.018,100.0,101.0,99.0,13.4,1505.2,326.7,-0.7,1.8,2470.625,13.28,0.028,123.7
2021-10-18T00:28:03,42.805,6.029,0.028,0.0,-0.004,99.0,100.0,99.0,13.4,1505.2,327.0,-0.8,1.8,2470.677,13.28,0.028,90.0
2021-10-18T00:31:03,42.805,6.029,0.037,-0.034,-0.045,100.0,101.0,98.0,13.4,1505.2,327.4,-0.7,1.8,2470.639,13.28,0.05,132.6
2021-10-18T00:34:03,42.805,6.029,0.01,0.005,-0.036,99.0,101.0,100.0,13.4,1505.2,328.6,-0.7,1.8,2470.673,13.28,0.011,63.4
2021-10-18T00:37:03,42.805,6.029,0.052,-0.032,-0.013,100.0,99.0,100.0,13.4,1505.2,330.0,-0.8,1.8,2470.672,13.28,0.061,121.6
2021-10-18T00:40:03,42.805,6.029,0.009,-0.002,-0.009,100.0,100.0,99.0,13.4,1505.2,328.2,-0.8,1.8,2470.656,13.28,0.009,102.5
2021-10-18T00:43:03,42.805,6.029,0.02,-0.011,-0.038,99.0,100.0,100.0,13.4,1505.2,330.1,-0.7,1.8,2470.609,13.28,0.022,118.8
2021-10-18T00:46:03,42.805,6.029,0.031,-0.022,-0.015,101.0,101.0,99.0,13.4,1505.2,329.4,-0.8,1.8,2470.625,13.28,0.038,125.4
2021-10-18T00:49:03,42.805,6.029,0.032,-0.004,0.017,100.0,100.0,100.0,13.3,1505.2,327.9,-0.7,1.8,2470.6,13.28,0.032,97.1
2021-10-18T00:52:03,42.805,6.029,0.063,-0.051,0.001,100.0,99.0,99.0,13.4,1505.2,331.4,-0.7,1.8,2470.631,13.28,0.081,129.0
2021-10-18T00:55:03,42.805,6.029,0.02,-0.027,-0.054,100.0,100.0,100.0,13.3,1505.2,328.3,-0.8,1.8,2470.67,13.28,0.033,143.5
2021-10-18T00:58:03,42.805,6.029,0.021,-0.009,0.024,101.0,100.0,99.0,13.4,1505.2,326.8,-0.7,1.8,2470.658,13.28,0.022,113.2
2021-10-18T01:04:03,42.805,6.029,0.014,-0.008,-0.052,102.0,102.0,100.0,13.4,1505.2,329.5,-0.8,1.8,2470.693,13.28,0.016,119.7
2021-10-18T01:07:03,42.805,6.029,0.03,-0.004,0.03,101.0,101.0,101.0,13.4,1505.2,325.3,-0.8,1.8,2470.649,13.28,0.03,97.6
2021-10-18T01:10:03,42.805,6.029,0.016,-0.015,-0.004,101.0,100.0,99.0,13.4,1505.2,331.2,-0.7,1.8,2470.678,13.28,0.021,133.1
2021-10-18T01:13:03,42.805,6.029,0.019,-0.014,-0.006,100.0,101.0,99.0,13.4,1505.2,329.6,-0.8,1.8,2470.651,13.28,0.023,126.4
2021-10-18T01:16:03,42.805,6.029,0.02,-0.011,0.002,101.0,100.0,99.0,13.4,1505.2,327.1,-0.8,1.8,2470.634,13.28,0.022,118.8
2021-10-18T01:19:03,42.805,6.029,0.049,-0.032,-0.029,100.0,100.0,99.0,13.4,1505.2,327.1,-0.8,1.8,2470.69,13.28,0.058,123.2
2021-10-18T01:22:03,42.805,6.029,0.034,-0.021,-0.013,99.0,102.0,98.0,13.4,1505.2,325.2,-0.7,1.8,2470.688,13.28,0.039,121.7
2021-10-18T01:25:03,42.805,6.029,0.019,-0.025,-0.007,100.0,100.0,99.0,13.4,1505.2,329.8,-0.8,1.9,2470.643,13.28,0.031,142.8
2021-10-18T01:28:03,42.805,6.029,0.041,-0.032,-0.017,99.0,101.0,99.0,13.3,1505.2,328.0,-0.8,1.8,2470.645,13.28,0.052,128.0
2021-10-18T01:31:03,42.805,6.029,0.036,-0.008,-0.007,98.0,100.0,100.0,13.3,1505.2,325.1,-0.7,1.8,2470.675,13.28,0.036,102.5
2021-10-18T01:34:03,42.805,6.029,0.021,-0.038,-0.027,100.0,101.0,98.0,13.3,1505.2,329.1,-0.8,1.9,2470.663,13.28,0.043,151.1
2021-10-18T01:37:03,42.805,6.029,0.041,-0.043,-0.037,99.0,100.0,99.0,13.4,1505.2,327.2,-0.7,1.8,2470.666,13.28,0.059,136.4
2021-10-18T01:40:03,42.805,6.029,0.035,-0.02,-0.012,100.0,100.0,99.0,13.4,1505.2,325.3,-0.7,1.8,2470.652,13.28,0.04,119.7
2021-10-18T01:43:03,42.805,6.029,0.041,-0.018,0.014,99.0,101.0,99.0,13.4,1505.2,329.4,-0.8,1.8,2470.667,13.28,0.044,113.7
2021-10-18T01:46:03,42.805,6.029,0.039,-0.027,-0.037,100.0,100.0,99.0,13.4,1505.2,331.3,-0.8,1.8,2470.649,13.28,0.047,124.7
2021-10-18T01:49:03,42.805,6.029,0.032,-0.033,-0.03,100.0,99.0,99.0,13.4,1505.2,330.4,-0.8,1.8,2470.661,13.28,0.045,135.9
2021-10-18T01:52:03,42.805,6.029,0.022,-0.013,-0.022,100.0,99.0,100.0,13.4,1505.2,330.6,-0.8,1.8,2470.626,13.28,0.025,120.6
2021-10-18T01:55:03,42.805,6.029,-0.001,-0.009,-0.011,99.0,100.0,99.0,13.4,1505.2,329.8,-0.7,1.8,2470.695,13.28,0.009,186.3
2021-10-18T01:58:03,42.805,6.029,0.032,-0.035,-0.032,99.0,100.0,99.0,13.3,1505.2,329.5,-0.7,1.8,2470.668,13.28,0.047,137.6
2021-10-18T02:04:03,42.805,6.029,0.022,-0.025,-0.036,100.0,101.0,99.0,13.4,1505.2,325.7,-0.7,1.8,2470.686,13.28,0.033,138.7
2021-10-18T02:07:03,42.805,6.029,0.034,-0.049,-0.052,101.0,99.0,99.0,13.3,1505.2,330.5,-0.7,1.8,2470.706,13.28,0.059,145.2
2021-10-18T02:10:03,42.805,6.029,0.042,-0.029,-0.034,100.0,100.0,99.0,13.3,1505.2,330.2,-0.8,1.8,2470.706,13.28,0.051,124.6
2021-10-18T02:13:03,42.805,6.029,0.03,-0.027,-0.002,100.0,100.0,99.0,13.4,1505.2,331.1,-0.8,1.9,2470.687,13.28,0.04,132.0
2021-10-18T02:16:03,42.805,6.029,0.028,-0.032,-0.055,99.0,99.0,99.0,13.4,1505.2,327.2,-0.7,1.8,2470.707,13.28,0.042,138.8
2021-10-18T02:19:03,42.805,6.029,0.052,-0.025,-0.02,100.0,100.0,99.0,13.4,1505.2,326.6,-0.8,1.8,2470.706,13.28,0.057,115.7
2021-10-18T02:22:03,42.805,6.029,0.026,0.0,0.004,100.0,100.0,98.0,13.4,1505.2,327.3,-0.7,1.8,2470.644,13.28,0.026,90.0
2021-10-18T02:25:03,42.805,6.029,0.015,-0.005,0.001,100.0,99.0,100.0,13.4,1505.2,329.7,-0.8,1.8,2470.68,13.28,0.015,108.4
2021-10-18T02:28:03,42.805,6.029,0.017,-0.018,-0.013,99.0,100.0,100.0,13.4,1505.2,325.5,-0.7,1.9,2470.689,13.28,0.024,136.6
2021-10-18T02:31:03,42.805,6.029,0.044,-0.041,-0.011,97.0,100.0,100.0,13.4,1505.2,328.7,-0.8,1.8,2470.672,13.28,0.06,133.0
2021-10-18T02:34:03,42.805,6.029,0.034,-0.005,0.008,99.0,100.0,99.0,13.4,1505.2,326.3,-0.7,1.8,2470.641,13.28,0.034,98.4
2021-10-18T02:37:03,42.805,6.029,0.021,0.013,0.017,101.0,101.0,97.0,13.3,1505.2,329.1,-0.8,1.8,2470.674,13.28,0.024,58.2
2021-10-18T02:40:03,42.805,6.029,0.049,-0.023,0.0,99.0,98.0,100.0,13.4,1505.2,328.2,-0.7,1.8,2470.688,13.28,0.054,115.1
2021-10-18T02:43:03,42.805,6.029,0.016,-0.017,-0.031,100.0,101.0,98.0,13.4,1505.2,329.4,-0.8,1.8,2470.653,13.28,0.023,136.7
2021-10-18T02:46:03,42.805,6.029,0.035,-0.014,-0.007,99.0,100.0,99.0,13.4,1505.2,329.0,-0.7,1.8,2470.658,13.28,0.037,111.8
2021-10-18T02:49:03,42.805,6.029,0.022,-0.036,-0.011,101.0,99.0,99.0,13.3,1505.2,330.3,-0.8,1.9,2470.679,13.28,0.042,148.6
2021-10-18T02:52:03,42.805,6.029,0.021,-0.032,-0.022,100.0,99.0,99.0,13.4,1505.2,327.0,-0.8,1.8,2470.69,13.28,0.038,146.7
2021-10-18T02:55:03,42.805,6.029,0.029,-0.024,-0.047,101.0,101.0,99.0,13.4,1505.2,328.3,-0.8,1.8,2470.736,13.28,0.037,129.6
2021-10-18T02:58:03,42.805,6.029,0.015,-0.021,-0.011,99.0,99.0,100.0,13.4,1505.2,331.4,-0.8,1.8,2470.631,13.28,0.025,144.5
2021-10-18T03:04:03,42.805,6.029,0.036,-0.037,-0.002,99.0,100.0,100.0,13.3,1505.2,327.8,-0.7,1.8,2470.753,13.28,0.051,135.8
2021-10-18T03:07:03,42.805,6.029,0.021,-0.024,-0.026,100.0,100.0,99.0,13.4,1505.2,328.9,-0.7,1.8,2470.738,13.28,0.031,138.8
2021-10-18T03:10:03,42.805,6.029,0.022,-0.046,-0.03,100.0,100.0,99.0,13.4,1505.2,330.8,-0.8,1.8,2470.733,13.28,0.05,154.4
2021-10-18T03:13:03,42.805,6.029,0.023,-0.015,-0.021,100.0,100.0,99.0,13.4,1505.2,325.7,-0.8,1.9,2470.71,13.28,0.027,123.1
2021-10-18T03:16:03,42.805,6.029,0.061,-0.042,0.012,99.0,100.0,100.0,13.4,1505.2,328.4,-0.7,1.8,2470.721,13.28,0.074,124.6
2021-10-18T03:19:03,42.805,6.029,0.05,-0.041,0.003,100.0,100.0,99.0,13.3,1505.2,330.2,-0.8,1.8,2470.731,13.28,0.064,129.3
2021-10-18T03:22:03,42.805,6.029,0.021,-0.028,-0.026,99.0,99.0,100.0,13.4,1505.2,330.4,-0.7,1.8,2470.739,13.28,0.035,143.1
2021-10-18T03:25:03,42.805,6.029,0.021,-0.033,0.0,99.0,100.0,99.0,13.4,1505.2,330.4,-0.7,1.8,2470.75,13.28,0.039,147.5
2021-10-18T03:28:03,42.805,6.029,0.032,-0.053,-0.025,100.0,101.0,98.0,13.3,1505.2,327.0,-0.7,1.8,2470.714,13.28,0.061,148.9
2021-10-18T03:31:03,42.805,6.029,0.006,-0.006,0.008,100.0,99.0,99.0,13.4,1505.2,325.7,-0.8,1.8,2470.697,13.28,0.008,135.0
2021-10-18T03:34:03,42.805,6.029,0.03,-0.026,-0.027,100.0,100.0,100.0,13.3,1505.2,326.6,-0.8,1.8,2470.714,13.28,0.039,130.9
2021-10-18T03:37:03,42.805,6.029,0.034,-0.02,0.009,99.0,99.0,99.0,13.4,1505.2,330.9,-0.8,1.8,2470.713,13.28,0.039,120.5
2021-10-18T03:40:03,42.805,6.029,0.027,-0.038,-0.034,100.0,100.0,99.0,13.4,1505.2,328.4,-0.7,1.8,2470.734,13.28,0.046,144.6
2021-10-18T03:43:03,42.805,6.029,0.015,-0.023,-0.01,99.0,100.0,99.0,13.4,1505.2,329.1,-0.7,1.8,2470.752,13.28,0.027,146.9
2021-10-18T03:46:03,42.805,6.029,0.041,-0.042,-0.029,99.0,99.0,100.0,13.4,1505.2,329.3,-0.8,1.8,2470.717,13.28,0.058,135.7
2021-10-18T03:49:03,42.805,6.029,0.022,-0.026,-0.041,100.0,100.0,99.0,13.4,1505.2,329.1,-0.7,1.8,2470.74,13.28,0.034,139.8
2021-10-18T03:52:03,42.805,6.029,0.037,-0.005,0.021,99.0,100.0,100.0,13.4,1505.2,328.8,-0.7,1.8,2470.716,13.28,0.037,97.7
2021-10-18T03:55:03,42.805,6.029,0.016,-0.014,-0.04,100.0,100.0,99.0,13.4,1505.2,329.3,-0.8,1.8,2470.748,13.28,0.021,131.2
2021-10-18T03:58:03,42.805,6.029,0.021,-0.022,-0.016,99.0,101.0,100.0,13.4,1505.2,331.4,-0.8,1.8,2470.729,13.28,0.03,136.3
2021-10-18T04:04:03,42.805,6.029,0.02,-0.029,-0.045,100.0,99.0,99.0,13.3,1505.2,329.2,-0.7,1.8,2470.77,13.28,0.035,145.4
2021-10-18T04:07:03,42.805,6.029,0.008,-0.029,-0.023,101.0,99.0,98.0,13.3,1505.2,326.3,-0.7,1.9,2470.747,13.28,0.03,164.6
2021-10-18T04:10:03,42.805,6.029,0.042,-0.026,-0.023,101.0,99.0,100.0,13.4,1505.2,329.8,-0.8,1.8,2470.759,13.28,0.049,121.8
2021-10-18T04:13:03,42.805,6.029,0.032,-0.029,-0.013,99.0,100.0,100.0,13.4,1505.2,327.3,-0.8,1.8,2470.769,13.28,0.043,132.2
2021-10-18T04:16:03,42.805,6.029,0.043,-0.019,-0.01,100.0,101.0,99.0,13.4,1505.2,331.9,-0.8,1.8,2470.741,13.28,0.047,113.8
2021-10-18T04:19:03,42.805,6.029,0.032,-0.009,-0.03,100.0,99.0,99.0,13.3,1505.2,326.4,-0.8,1.8,2470.679,13.28,0.033,105.7
2021-10-18T04:22:03,42.805,6.029,0.019,-0.014,-0.001,100.0,102.0,98.0,13.3,1505.2,326.4,-0.8,1.8,2470.763,13.28,0.023,126.4
2021-10-18T04:25:03,42.805,6.029,0.043,-0.032,0.005,100.0,100.0,100.0,13.4,1505.2,326.8,-0.7,1.8,2470.815,13.28,0.053,126.7
2021-10-18T04:28:03,42.805,6.029,0.02,-0.023,-0.013,101.0,100.0,100.0,13.4,1505.2,328.9,-0.8,1.8,2470.756,13.28,0.03,139.0
2021-10-18T04:31:03,42.805,6.029,0.016,0.022,0.042,99.0,101.0,100.0,13.4,1505.2,325.8,-0.8,1.8,2470.731,13.28,0.027,36.0
2021-10-18T04:34:03,42.805,6.029,0.022,-0.037,-0.038,100.0,100.0,99.0,13.4,1505.2,327.2,-0.8,1.8,2470.784,13.28,0.043,149.3
2021-10-18T04:37:03,42.805,6.029,0.021,-0.01,-0.042,100.0,100.0,100.0,13.3,1505.2,330.2,-0.8,1.8,2470.769,13.28,0.023,115.5
2021-10-18T04:40:03,42.805,6.029,0.034,0.004,0.015,101.0,100.0,99.0,13.4,1505.2,326.6,-0.8,1.8,2470.775,13.28,0.034,83.3
2021-10-18T04:43:03,42.805,6.029,0.04,-0.025,-0.008,100.0,100.0,99.0,13.4,1505.2,328.2,-0.8,1.8,2470.761,13.28,0.047,122.0
2021-10-18T04:46:03,42.805,6.029,0.005,-0.029,-0.036,99.0,100.0,100.0,13.3,1505.2,328.6,-0.7,1.8,2470.804,13.28,0.029,170.2
2021-10-18T04:49:03,42.805,6.029,0.048,-0.039,-0.024,100.0,100.0,99.0,13.4,1505.2,329.1,-0.7,1.8,2470.772,13.28,0.061,129.1
2021-10-18T04:52:03,42.805,6.029,0.012,-0.01,0.002,100.0,101.0,99.0,13.3,1505.2,328.7,-0.7,1.8,2470.729,13.28,0.015,129.8
2021-10-18T04:55:03,42.805,6.029,0.022,-0.009,0.001,101.0,101.0,99.0,13.4,1505.2,327.3,-0.8,1.9,2470.779,13.28,0.023,112.2
2021-10-18T04:58:03,42.805,6.029,0.012,-0.001,-0.012,100.0,100.0,99.0,13.4,1505.2,327.4,-0.8,1.8,2470.738,13.28,0.012,94.8
2021-10-18T05:04:03,42.805,6.029,0.021,-0.019,-0.021,100.0,100.0,99.0,13.4,1505.2,328.3,-0.7,1.8,2470.818,13.28,0.028,132.1
2021-10-18T05:07:03,42.805,6.029,0.026,-0.019,0.0,100.0,100.0,99.0,13.4,1505.2,328.0,-0.8,1.8,2470.804,13.28,0.032,126.2
2021-10-18T05:10:03,42.805,6.029,0.043,-0.022,-0.023,101.0,99.0,99.0,13.4,1505.2,326.9,-0.8,1.9,2470.814,13.28,0.048,117.1
2021-10-18T05:13:03,42.805,6.029,0.025,-0.014,-0.004,100.0,100.0,100.0,13.3,1505.2,330.2,-0.7,1.8,2470.785,13.28,0.028,119.3
2021-10-18T05:16:03,42.805,6.029,0.034,-0.028,-0.009,101.0,100.0,99.0,13.4,1505.2,331.0,-0.8,1.8,2470.791,13.28,0.044,129.5
2021-10-18T05:19:03,42.805,6.029,0.021,-0.018,-0.007,100.0,100.0,100.0,13.3,1505.2,331.5,-0.8,1.8,2470.848,13.28,0.027,130.6
2021-10-18T05:22:03,42.805,6.029,0.011,-0.024,-0.013,100.0,100.0,100.0,13.4,1505.2,325.4,-0.8,1.8,2470.818,13.28,0.026,155.4
2021-10-18T05:25:03,42.805,6.029,0.022,0.0,-0.002,100.0,100.0,99.0,13.4,1505.2,326.9,-0.7,1.8,2470.77,13.28,0.022,90.0
2021-10-18T05:28:03,42.805,6.029,0.025,-0.011,-0.02,99.0,100.0,99.0,13.4,1505.2,329.1,-0.8,1.8,2470.779,13.28,0.027,113.7
2021-10-18T05:31:03,42.805,6.029,0.025,-0.002,0.006,100.0,101.0,99.0,13.4,1505.2,328.9,-0.8,1.8,2470.822,13.28,0.025,94.6
2021-10-18T05:34:03,42.805,6.029,0.03,-0.035,-0.043,100.0,100.0,99.0,13.4,1505.2,329.5,-0.7,1.8,2470.776,13.28,0.046,139.4
2021-10-18T05:37:03,42.805,6.029,0.016,-0.017,-0.014,100.0,100.0,99.0,13.4,1505.2,327.2,-0.8,1.8,2470.808,13.28,0.023,136.7
2021-10-18T05:40:03,42.805,6.029,0.034,-0.024,-0.001,100.0,99.0,100.0,13.4,1505.2,327.0,-0.7,1.8,2470.773,13.28,0.041,125.2
2021-10-18T05:43:03,42.805,6.029,0.032,-0.014,-0.006,100.0,100.0,99.0,13.3,1505.2,327.2,-0.7,1.8,2470.789,13.28,0.034,113.6
2021-10-18T05:46:03,42.805,6.029,0.027,-0.003,-0.006,100.0,100.0,99.0,13.4,1505.2,329.2,-0.8,1.8,2470.83,13.28,0.027,96.3
2021-10-18T05:49:03,42.805,6.029,0.011,-0.024,-0.002,101.0,100.0,99.0,13.4,1505.2,327.8,-0.7,1.8,2470.775,13.28,0.026,155.4
2021-10-18T05:52:03,42.805,6.029,0.026,-0.029,-0.011,100.0,100.0,99.0,13.3,1505.2,328.8,-0.7,1.8,2470.78,13.28,0.038,138.1
2021-10-18T05:55:03,42.805,6.029,0.005,-0.01,-0.041,101.0,99.0,99.0,13.3,1505.2,329.4,-0.8,1.8,2470.78,13.28,0.011,153.4
2021-10-18T05:58:03,42.805,6.029,0.027,-0.022,-0.001,100.0,100.0,100.0,13.4,1505.2,331.5,-0.7,1.8,2470.777,13.28,0.034,129.2
2021-10-18T06:04:03,42.805,6.029,0.006,-0.028,-0.038,101.0,101.0,98.0,13.3,1505.2,331.0,-0.7,1.8,2470.817,13.28,0.028,167.9
2021-10-18T06:07:03,42.805,6.029,0.019,-0.032,-0.04,100.0,99.0,100.0,13.4,1505.2,327.7,-0.7,1.8,2470.794,13.28,0.037,149.3
2021-10-18T06:10:03,42.805,6.029,0.039,-0.021,0.013,99.0,101.0,99.0,13.4,1505.2,331.0,-0.8,1.8,2470.832,13.28,0.044,118.3
2021-10-18T06:13:03,42.805,6.029,0.014,0.005,0.017,99.0,101.0,98.0,13.4,1505.2,325.6,-0.8,1.8,2470.804,13.28,0.014,70.4
2021-10-18T06:16:03,42.805,6.029,0.056,-0.044,-0.04,99.0,99.0,100.0,13.3,1505.2,328.8,-0.8,1.8,2470.779,13.28,0.071,128.2
2021-10-18T06:19:03,42.805,6.029,0.03,-0.021,-0.02,101.0,101.0,99.0,13.4,1505.2,327.3,-0.8,1.8,2470.764,13.28,0.036,125.0
2021-10-18T06:22:03,42.805,6.029,0.017,0.025,0.047,99.0,100.0,100.0,13.4,1505.2,328.0,-0.7,1.8,2470.809,13.28,0.03,34.2
2021-10-18T06:25:03,42.805,6.029,0.046,-0.025,-0.021,102.0,101.0,98.0,13.3,1505.2,327.9,-0.8,1.8,2470.836,13.28,0.052,118.5
2021-10-18T06:28:03,42.805,6.029,0.016,-0.027,-0.019,100.0,100.0,100.0,13.4,1505.2,329.4,-0.7,1.9,2470.786,13.28,0.031,149.3
2021-10-18T06:31:03,42.805,6.029,0.031,-0.005,-0.023,100.0,100.0,99.0,13.4,1505.2,329.3,-0.7,1.8,2470.83,13.28,0.031,99.2
2021-10-18T06:34:03,42.805,6.029,0.012,-0.021,-0.035,101.0,100.0,100.0,13.4,1505.2,325.7,-0.8,1.8,2470.733,13.28,0.024,150.3
2021-10-18T06:37:03,42.805,6.029,0.019,-0.014,-0.013,101.0,101.0,100.0,13.4,1505.2,327.6,-0.7,1.8,2470.78,13.28,0.023,126.4
2021-10-18T06:40:03,42.805,6.029,0.01,-0.047,-0.028,99.0,100.0,99.0,13.3,1505.2,328.0,-0.7,1.8,2470.734,13.28,0.048,168.0
2021-10-18T06:43:03,42.805,6.029,0.004,-0.024,-0.067,98.0,101.0,101.0,13.3,1505.2,327.9,-0.7,1.8,2470.758,13.28,0.024,170.5
2021-10-18T06:46:03,42.805,6.029,0.013,0.001,0.004,98.0,102.0,100.0,13.4,1505.2,325.9,-0.7,1.8,2470.808,13.28,0.013,85.6
2021-10-18T06:49:03,42.805,6.029,0.007,-0.012,0.004,103.0,100.0,99.0,13.4,1505.2,331.2,-0.8,1.8,2470.761,13.28,0.013,149.7
2021-10-18T06:52:03,42.805,6.029,0.009,-0.025,0.01,98.0,101.0,99.0,13.4,1505.2,329.3,-0.7,1.8,2470.783,13.28,0.026,160.2
2021-10-18T06:55:03,42.805,6.029,0.016,-0.013,-0.023,100.0,101.0,99.0,13.4,1505.2,330.9,-0.7,1.8,2470.766,13.28,0.02,129.1
2021-10-18T06:58:03,42.805,6.029,0.032,-0.029,-0.025,100.0,100.0,100.0,13.4,1505.2,328.1,-0.8,1.8,2470.787,13.28,0.043,132.2
2021-10-18T07:04:03,42.805,6.029,0.029,-0.007,0.009,100.0,100.0,100.0,13.3,1505.2,326.9,-0.8,1.8,2470.823,13.28,0.029,103.6
2021-10-18T07:07:03,42.805,6.029,0.001,-0.021,-0.009,103.0,100.0,99.0,13.4,1505.2,330.0,-0.8,1.8,2470.801,13.28,0.021,177.3
2021-10-18T07:10:03,42.805,6.029,0.028,-0.029,-0.03,100.0,101.0,99.0,13.3,1505.2,329.5,-0.8,1.8,2470.841,13.28,0.04,136.0
2021-10-18T07:13:03,42.805,6.029,0.014,-0.022,0.018,101.0,99.0,99.0,13.4,1505.2,327.9,-0.8,1.9,2470.779,13.28,0.026,147.5
2021-10-18T07:16:03,42.805,6.029,0.008,-0.01,-0.03,99.0,101.0,100.0,13.3,1505.2,327.6,-0.8,1.8,2470.772,13.28,0.012,141.3
2021-10-18T07:19:03,42.805,6.029,0.035,-0.03,-0.019,100.0,100.0,99.0,13.4,1505.2,331.9,-0.7,1.8,2470.788,13.28,0.046,130.6
2021-10-18T07:22:03,42.805,6.029,0.003,-0.01,-0.021,99.0,100.0,99.0,13.4,1505.2,326.9,-0.7,1.8,2470.804,13.28,0.01,163.3
2021-10-18T07:25:03,42.805,6.029,0.037,-0.035,-0.034,100.0,100.0,99.0,13.4,1505.2,327.9,-0.7,1.8,2470.811,13.28,0.05,133.4
2021-10-18T07:28:03,42.805,6.029,0.017,-0.009,-0.027,100.0,100.0,100.0,13.4,1505.2,331.6,-0.7,1.8,2470.768,13.28,0.019,117.9
2021-10-18T07:31:03,42.805,6.029,0.013,-0.031,-0.015,101.0,99.0,99.0,13.4,1505.2,329.9,-0.8,1.8,2470.775,13.28,0.033,157.3
2021-10-18T07:34:03,42.805,6.029,-0.009,-0.001,0.003,99.0,100.0,100.0,13.4,1505.2,327.2,-0.7,1.8,2470.793,13.28,0.009,263.7
2021-10-18T07:37:03,42.805,6.029,-0.004,-0.029,-0.065,99.0,101.0,99.0,13.4,1505.2,330.4,-0.8,1.8,2470.815,13.28,0.029,187.8
2021-10-18T07:40:03,42.805,6.029,0.045,-0.031,-0.018,100.0,100.0,99.0,13.4,1505.2,330.9,-0.7,1.8,2470.751,13.28,0.054,124.6
2021-10-18T07:43:03,42.805,6.029,0.015,-0.004,-0.005,100.0,99.0,100.0,13.4,1505.2,327.3,-0.8,1.8,2470.777,13.28,0.015,104.9
2021-10-18T07:46:03,42.805,6.029,0.011,-0.025,-0.013,100.0,101.0,98.0,13.4,1505.2,329.9,-0.8,1.8,2470.797,13.28,0.027,156.3
2021-10-18T07:49:03,42.805,6.029,0.021,-0.007,-0.013,100.0,100.0,99.0,13.4,1505.2,326.0,-0.7,1.9,2470.773,13.28,0.022,108.4
2021-10-18T07:52:03,42.805,6.029,0.021,-0.001,-0.006,100.0,100.0,100.0,13.3,1505.2,328.0,-0.8,1.8,2470.74,13.28,0.021,92.7
2021-10-18T07:55:03,42.805,6.029,-0.008,-0.022,-0.018,99.0,100.0,99.0,13.4,1505.2,330.8,-0.7,1.8,2470.749,13.28,0.023,200.0
2021-10-18T07:58:03,42.805,6.029,0.027,-0.024,-0.018,100.0,100.0,99.0,13.4,1505.2,325.6,-0.8,1.8,2470.772,13.28,0.036,131.6
2021-10-18T08:04:03,42.805,6.029,0.0,-0.029,-0.029,99.0,100.0,99.0,13.4,1505.2,329.0,-0.7,1.8,2470.808,13.28,0.028,180.0
2021-10-18T08:07:03,42.805,6.029,0.015,-0.042,-0.039,101.0,100.0,99.0,13.3,1505.2,327.1,-0.7,1.8,2470.755,13.28,0.044,160.4
2021-10-18T08:10:03,42.805,6.029,0.016,-0.006,-0.043,101.0,100.0,99.0,13.4,1505.2,326.9,-0.7,1.8,2470.755,13.28,0.017,110.6
2021-10-18T08:13:03,42.805,6.029,0.003,-0.025,-0.032,100.0,100.0,99.0,13.3,1505.2,327.3,-0.8,1.8,2470.772,13.28,0.025,173.2
2021-10-18T08:16:03,42.805,6.029,0.025,-0.029,-0.016,101.0,99.0,99.0,13.4,1505.2,327.1,-0.8,1.8,2470.739,13.28,0.038,139.2
2021-10-18T08:19:03,42.805,6.029,0.034,-0.028,-0.051,99.0,99.0,99.0,13.4,1505.2,328.9,-0.8,1.8,2470.748,13.28,0.044,129.5
2021-10-18T08:22:03,42.805,6.029,0.015,-0.028,-0.047,102.0,98.0,98.0,13.4,1505.2,329.3,-0.8,1.8,2470.752,13.28,0.031,151.8
2021-10-18T08:25:03,42.805,6.029,0.024,-0.012,-0.035,99.0,99.0,99.0,13.3,1505.2,327.9,-0.8,1.8,2470.758,13.28,0.026,116.6
2021-10-18T08:28:03,42.805,6.029,0.035,-0.04,-0.027,99.0,100.0,99.0,13.3,1505.2,330.0,-0.8,1.8,2470.75,13.28,0.053,138.8
2021-10-18T08:31:03,42.805,6.029,0.018,-0.012,-0.009,100.0,99.0,99.0,13.4,1505.2,331.1,-0.8,1.8,2470.725,13.28,0.021,123.7
2021-10-18T08:34:03,42.805,6.029,0.033,-0.037,-0.015,100.0,101.0,100.0,13.4,1505.2,325.7,-0.8,1.9,2470.744,13.28,0.049,138.3
2021-10-18T08:37:03,42.805,6.029,0.02,-0.024,-0.033,99.0,101.0,100.0,13.3,1505.2,331.8,-0.8,1.8,2470.761,13.28,0.031,140.2
2021-10-18T08:40:03,42.805,6.029,0.02,0.0,0.005,100.0,100.0,99.0,13.3,1505.2,326.1,-0.8,1.8,2470.762,13.28,0.02,90.0
2021-10-18T08:43:03,42.805,6.029,0.005,-0.014,-0.024,99.0,100.0,100.0,13.3,1505.2,325.8,-0.8,1.8,2470.758,13.28,0.014,160.4
2021-10-18T08:46:03,42.805,6.029,0.017,-0.006,-0.007,99.0,101.0,99.0,13.4,1505.2,327.4,-0.7,1.8,2470.744,13.28,0.018,109.4
2021-10-18T08:49:03,42.805,6.029,0.035,-0.014,0.007,100.0,99.0,99.0,13.4,1505.2,330.6,-0.7,1.8,2470.761,13.28,0.037,111.8
2021-10-18T08:52:03,42.805,6.029,0.007,0.004,-0.011,100.0,100.0,99.0,13.4,1505.2,326.4,-0.7,1.8,2470.693,13.28,0.008,60.3
2021-10-18T08:55:03,42.805,6.029,0.039,-0.023,-0.004,100.0,101.0,99.0,13.4,1505.2,329.2,-0.8,1.8,2470.708,13.28,0.045,120.5
2021-10-18T08:58:03,42.805,6.029,0.028,-0.012,-0.008,99.0,100.0,99.0,13.3,1505.2,327.3,-0.8,1.8,2470.728,13.28,0.03,113.2
2021-10-18T09:04:03,42.805,6.029,-0.005,-0.021,-0.014,100.0,100.0,99.0,13.3,1505.2,327.9,-0.8,1.8,2470.788,13.28,0.021,193.4
2021-10-18T09:07:03,42.805,6.029,0.039,-0.011,-0.004,100.0,99.0,99.0,13.4,1505.2,325.5,-0.7,1.8,2470.717,13.28,0.04,105.7
2021-10-18T09:10:03,42.805,6.029,0.018,-0.031,-0.042,100.0,100.0,98.0,13.3,1505.2,331.2,-0.7,1.8,2470.741,13.28,0.035,149.9
2021-10-18T09:13:03,42.805,6.029,0.016,-0.021,0.002,101.0,100.0,98.0,13.4,1505.2,329.6,-0.8,1.9,2470.723,13.28,0.026,142.7
2021-10-18T09:16:03,42.805,6.029,-0.003,0.0,-0.009,100.0,99.0,99.0,13.3,1505.2,325.2,-0.8,1.8,2470.749,13.28,0.003,270.0
2021-10-18T09:19:03,42.805,6.029,0.03,-0.002,0.011,100.0,99.0,99.0,13.3,1505.2,330.8,-0.7,1.8,2470.735,13.28,0.03,93.8
2021-10-18T09:22:03,42.805,6.029,0.009,-0.018,-0.027,99.0,100.0,99.0,13.4,1505.2,329.1,-0.7,1.8,2470.743,13.28,0.02,153.4
2021-10-18T09:25:03,42.805,6.029,0.01,-0.039,-0.055,100.0,101.0,99.0,13.4,1505.2,331.9,-0.8,1.8,2470.722,13.28,0.04,165.6
2021-10-18T09:28:03,42.805,6.029,0.041,-0.022,-0.006,100.0,100.0,99.0,13.4,1505.2,326.6,-0.7,1.8,2470.745,13.28,0.046,118.2
2021-10-18T09:31:03,42.805,6.029,0.003,-0.018,-0.025,99.0,100.0,100.0,13.4,1505.2,328.2,-0.8,1.8,2470.73,13.28,0.018,170.5
2021-10-18T09:34:03,42.805,6.029,0.028,-0.026,-0.029,100.0,100.0,99.0,13.4,1505.2,330.0,-0.8,1.8,2470.704,13.28,0.038,132.9
2021-10-18T09:37:03,42.805,6.029,0.016,-0.006,-0.022,100.0,100.0,99.0,13.4,1505.2,326.3,-0.8,1.8,2470.689,13.28,0.017,110.6
2021-10-18T09:40:03,42.805,6.029,0.033,-0.027,-0.021,99.0,99.0,100.0,13.4,1505.2,329.5,-0.8,1.8,2470.663,13.28,0.042,129.3
2021-10-18T09:43:03,42.805,6.029,0.021,-0.014,0.006,101.0,99.0,100.0,13.3,1505.2,327.2,-0.7,1.8,2470.732,13.28,0.025,123.7
2021-10-18T09:46:03,42.805,6.029,0.024,-0.005,-0.002,100.0,100.0,100.0,13.4,1505.2,327.6,-0.7,1.8,2470.704,13.28,0.024,101.8
2021-10-18T09:49:03,42.805,6.029,0.011,-0.013,0.008,101.0,98.0,100.0,13.4,1505.2,328.2,-0.7,1.8,2470.712,13.28,0.017,139.8
2021-10-18T09:52:03,42.805,6.029,0.037,-0.005,-0.009,100.0,101.0,98.0,13.4,1505.2,324.9,-0.7,1.8,2470.653,13.28,0.037,97.7
2021-10-18T09:55:03,42.805,6.029,0.041,-0.015,0.015,99.0,101.0,99.0,13.4,1505.2,328.1,-0.7,1.8,2470.698,13.28,0.043,110.1
2021-10-18T09:58:03,42.805,6.029,0.034,-0.046,-0.028,99.0,101.0,100.0,13.4,1505.2,329.4,-0.8,1.8,2470.711,13.28,0.057,143.5
2021-10-18T10:04:03,42.805,6.029,0.034,-0.016,0.015,100.0,99.0,99.0,13.3,1505.2,330.4,-0.8,1.8,2470.737,13.28,0.037,115.2